Total_Precipitation_Accumulation
1.03 1.09 1.51 1.92 2.12 1.99 2.08 1.67 1.14 0.88 0.75 0.72 0.66 0.56 0.51 0.53 0.47 0.53 0.35 0.30 0.30 0.32 0.38 0.43 0.43 0.52 0.56 0.62 0.72 0.84 1.05 1.39 1.55 0.87 0.66 0.54 0.46 0.31 0.24 0.27 0.24 0.18 0.17
1.28 1.07 1.08 1.38 1.76 1.60 1.50 1.49 1.83 1.07 0.81 0.72 0.63 0.70 0.63 0.56 0.54 0.51 0.44 0.32 0.28 0.24 0.25 0.28 0.31 0.38 0.43 0.53 0.62 0.66 0.76 0.85 1.00 0.72 0.35 0.27 0.23 0.18 0.17 0.21 0.20 0.19 0.18
1.82 1.47 0.95 0.94 1.31 1.51 1.55 1.38 1.71 1.90 1.32 1.06 0.95 0.79 0.62 0.65 0.63 0.60 0.54 0.57 0.52 0.44 0.41 0.42 0.44 0.55 0.57 0.65 0.80 0.83 0.83 0.82 0.83 0.86 0.56 0.35 0.29 0.29 0.36 0.39 0.38 0.38 0.35
2.23 2.06 1.38 1.09 1.35 1.41 1.58 1.86 1.83 2.05 1.99 1.61 1.38 1.27 1.28 1.11 0.98 0.89 0.78 0.71 0.62 0.58 0.55 0.58 0.65 0.68 0.68 0.70 0.75 0.74 0.80 0.86 0.93 0.94 0.88 0.74 0.59 0.49 0.64 0.62 0.54 0.47 0.47
1.70 1.93 1.71 1.52 1.64 2.11 2.18 2.02 1.82 2.28 2.32 2.23 2.08 1.99 1.92 2.00 1.93 1.82 1.57 1.33 1.21 1.12 1.03 0.93 0.81 0.84 0.86 0.81 0.82 0.77 0.95 1.11 1.28 1.46 1.37 1.26 1.19 1.04 0.91 0.84 0.99 0.90 0.87
1.54 1.63 1.45 1.76 1.80 2.09 2.39 2.28 1.73 2.27 2.32 2.71 2.61 2.38 2.29 2.09 2.42 2.49 2.35 2.16 2.07 1.84 1.53 1.26 1.11 1.20 1.07 1.11 1.09 1.09 1.10 1.27 1.43 1.58 1.46 1.29 0.98 0.89 0.89 1.12 1.39 1.56 1.49
1.09 1.21 1.38 1.54 1.53 1.82 1.87 2.08 2.35 2.65 2.92 3.14 3.23 2.83 2.89 2.87 3.02 2.95 3.32 3.01 2.66 2.29 1.94 1.65 1.46 1.36 1.42 1.27 1.34 1.37 1.43 1.72 1.71 1.47 1.36 1.21 1.19 1.07 1.36 1.66 1.71 1.78 1.65
0.62 0.97 1.24 1.24 1.31 1.44 1.51 2.12 2.06 2.09 2.60 2.88 3.13 3.40 3.54 3.56 3.45 3.10 3.23 3.20 2.99 2.51 2.20 2.01 1.80 1.62 1.63 1.71 1.60 1.77 1.64 1.48 1.38 1.34 1.34 1.26 1.28 1.29 1.43 1.70 1.62 1.70 1.53
0.30 0.39 0.64 0.73 0.72 0.78 1.16 1.46 1.26 1.32 1.68 1.97 1.97 2.03 2.16 2.15 2.39 2.31 2.23 1.95 1.80 1.66 1.58 1.52 1.56 1.50 1.67 1.80 1.76 1.73 1.38 1.23 1.41 1.47 1.34 1.29 1.25 1.12 1.03 1.30 1.50 1.44 1.38
0.33 0.32 0.32 0.52 0.52 0.75 0.87 1.02 1.23 1.14 1.20 1.20 1.15 1.06 1.33 1.37 1.70 1.83 1.89 1.69 1.42 1.26 1.17 1.08 1.19 0.99 1.14 1.46 1.20 0.99 1.05 0.94 1.04 1.13 1.10 1.02 0.97 0.99 1.12 1.05 1.40 2.10 1.70
0.58 0.60 0.65 0.78 0.68 0.64 0.74 0.67 0.63 0.56 0.53 0.57 0.59 0.57 0.58 0.66 0.82 0.99 1.03 1.04 1.10 1.17 1.15 1.09 1.13 1.43 1.59 1.53 1.39 1.14 1.17 1.25 1.22 1.04 0.93 0.92 0.88 0.84 0.81 0.89 1.16 2.07 2.35
0.68 0.59 0.58 0.49 0.44 0.35 0.28 0.19 0.12 0.13 0.10 0.09 0.14 0.16 0.18 0.26 0.42 0.48 0.45 0.40 0.46 0.49 0.55 0.61 0.70 1.02 0.80 0.78 0.81 0.81 0.83 0.77 0.59 0.58 0.59 0.58 0.58 0.65 0.75 0.87 0.94 1.08 1.27
0.16 0.13 0.14 0.09 0.05 0.03 0.00 0.00 0.01 0.01 0.01 0.01 0.02 0.02 0.04 0.08 0.16 0.30 0.32 0.47 0.54 0.47 0.44 0.69 0.75 0.59 0.48 0.47 0.53 0.59 0.65 0.53 0.57 0.69 0.68 0.69 0.75 0.89 0.93 0.87 0.85 0.83 0.88
0.02 0.02 0.01 0.00 0.01 0.00 0.00 0.00 0.00 0.00 0.00 0.00 0.00 0.01 0.01 0.01 0.02 0.06 0.16 0.23 0.27 0.31 0.45 0.52 0.45 0.47 0.46 0.39 0.41 0.40 0.38 0.44 0.63 0.76 0.76 0.65 0.76 0.83 0.79 0.90 1.12 1.02 1.29
0.09 0.13 0.16 0.14 0.12 0.06 0.03 0.04 0.02 0.02 0.03 0.01 0.01 0.02 0.04 0.04 0.05 0.11 0.13 0.11 0.18 0.34 0.29 0.16 0.18 0.23 0.28 0.31 0.34 0.36 0.41 0.50 0.60 0.59 0.80 0.80 0.78 0.85 0.88 1.02 1.31 1.48 1.44
0.01 0.02 0.05 0.11 0.23 0.32 0.35 0.39 0.42 0.40 0.39 0.31 0.27 0.23 0.21 0.27 0.28 0.32 0.32 0.41 0.46 0.41 0.32 0.22 0.24 0.22 0.23 0.30 0.38 0.49 0.59 0.69 0.62 0.76 0.78 0.75 0.88 0.95 1.08 1.25 1.50 1.52 1.33
0.03 0.04 0.03 0.02 0.01 0.02 0.04 0.09 0.15 0.23 0.28 0.33 0.41 0.47 0.50 0.50 0.52 0.51 0.64 0.70 0.59 0.57 0.44 0.33 0.37 0.41 0.46 0.53 0.58 0.66 0.68 0.59 0.76 0.95 0.95 0.92 1.00 1.10 1.28 1.27 1.26 1.23 1.05
0.04 0.06 0.04 0.04 0.03 0.04 0.04 0.03 0.03 0.02 0.02 0.04 0.09 0.16 0.24 0.31 0.35 0.42 0.54 0.56 0.42 0.42 0.37 0.34 0.38 0.44 0.51 0.60 0.64 0.71 0.69 0.66 0.79 0.85 0.97 0.97 1.07 1.35 1.37 1.26 1.11 1.05 0.99
0.08 0.06 0.06 0.05 0.06 0.06 0.04 0.03 0.03 0.03 0.01 0.01 0.01 0.04 0.10 0.20 0.25 0.29 0.35 0.31 0.24 0.31 0.35 0.36 0.35 0.40 0.48 0.56 0.58 0.64 0.71 0.92 1.10 1.20 1.07 1.09 1.14 1.54 1.40 1.08 0.97 0.83 0.84
0.09 0.13 0.10 0.06 0.06 0.06 0.05 0.06 0.09 0.11 0.12 0.11 0.09 0.08 0.13 0.20 0.21 0.13 0.15 0.17 0.23 0.31 0.31 0.38 0.40 0.41 0.48 0.59 0.66 0.69 0.83 0.90 0.96 0.99 1.06 1.17 1.31 1.52 1.45 1.08 0.89 1.00 0.89
0.07 0.09 0.13 0.07 0.07 0.08 0.09 0.09 0.09 0.12 0.15 0.15 0.13 0.20 0.30 0.26 0.16 0.16 0.16 0.19 0.22 0.26 0.29 0.33 0.37 0.45 0.50 0.58 0.70 0.83 1.02 1.02 1.09 1.32 1.35 1.32 1.41 1.39 0.90 0.94 0.90 0.92 1.00
0.07 0.09 0.09 0.09 0.11 0.15 0.16 0.18 0.19 0.18 0.16 0.16 0.14 0.23 0.32 0.23 0.16 0.19 0.22 0.23 0.23 0.26 0.28 0.33 0.35 0.38 0.61 0.94 1.14 1.26 1.19 1.19 1.22 1.45 1.41 1.28 1.23 1.00 0.94 1.01 0.94 0.96 0.98
0.04 0.05 0.06 0.08 0.10 0.16 0.21 0.17 0.16 0.16 0.13 0.12 0.12 0.13 0.15 0.18 0.16 0.16 0.15 0.15 0.22 0.26 0.26 0.31 0.37 0.36 0.34 0.63 1.06 1.63 1.79 1.37 1.35 1.54 1.62 1.40 1.25 1.19 1.26 1.30 1.08 1.11 1.03
0.00 0.00 0.01 0.01 0.04 0.07 0.07 0.09 0.10 0.16 0.17 0.13 0.10 0.09 0.07 0.06 0.08 0.08 0.08 0.09 0.11 0.12 0.14 0.21 0.32 0.42 0.46 0.60 0.88 1.15 1.51 1.60 1.72 1.81 2.03 2.09 1.44 1.14 1.13 1.16 0.96 0.93 0.98
0.01 0.01 0.01 0.02 0.04 0.05 0.07 0.09 0.10 0.09 0.13 0.15 0.15 0.16 0.14 0.15 0.12 0.08 0.07 0.09 0.13 0.13 0.10 0.14 0.28 0.42 0.52 0.72 0.92 1.03 1.31 1.34 1.48 1.47 1.41 1.42 1.31 1.05 1.08 1.15 0.93 0.97 0.96
0.04 0.05 0.06 0.07 0.08 0.08 0.11 0.12 0.13 0.14 0.17 0.17 0.20 0.21 0.22 0.24 0.19 0.16 0.17 0.20 0.19 0.16 0.15 0.15 0.22 0.38 0.53 0.71 0.84 1.05 1.15 1.12 1.05 0.89 1.11 1.43 1.14 0.92 0.95 1.09 0.95 1.09 0.98